Retour au catalogue

STARLINK-2472

ActifCommunicationsVLEO
NORAD 48130·PAYLOAD·🇺🇸 United States

Lancé Apr 7, 2021 depuis Cape Canaveral Space Force Station

Loading…

Prochains Passages (prochaines 24 heures)

TLE

FraisSource: CelesTrak SupGP

Époque: Sep 14, 2026, 20:21 UTC

1 48130C 21027AQ  26257.84840278  .00010205  00000+0  32805-3 0  2576
2 48130  53.1604   7.8841 0001039  84.0698 247.0227 15.31708686    13

Suivez STARLINK-2472 en temps réel avec AllMySat

Download on the App Store